Temp
61 61 60 59 58 57 57 62 63 64 64 64 63 62 62 63 64 60 56 60 64 71 70 64 63 64 62 57 58 54 42 39 41 46 47 53 51 55 56 52 55 56 55 57 59
60 61 61 60 59 58 57 60 62 63 63 63 63 63 64 62 58 56 66 71 71 71 62 58 57 60 53 54 54 47 40 43 47 47 50 52 51 49 50 51 51 52 57 58 58
62 61 61 60 61 60 59 60 61 63 63 63 62 63 63 61 52 55 69 71 71 69 63 60 61 59 50 52 51 48 43 49 49 51 52 51 49 52 49 46 49 48 54 56 55
61 61 62 62 61 61 61 61 61 62 63 62 62 62 62 58 41 57 67 71 70 65 62 59 56 50 47 46 51 46 51 52 51 52 50 47 50 46 48 49 53 54 54 55 57
61 61 60 61 61 61 61 61 62 62 62 61 61 62 56 50 49 59 64 67 65 63 59 56 52 50 45 48 50 46 48 51 51 51 49 51 46 45 47 53 54 58 58 55 55
61 61 61 60 60 60 61 60 61 61 62 61 61 60 52 42 57 59 60 61 63 61 57 57 52 54 49 47 45 48 49 49 50 49 50 46 44 47 50 52 55 56 54 54 54
60 60 60 60 60 60 60 60 60 60 61 61 61 57 50 47 57 58 59 58 61 60 56 57 56 53 49 45 49 49 43 45 45 48 46 46 42 43 49 52 54 54 54 52 52
60 60 60 60 59 59 60 60 60 60 61 61 61 54 46 56 58 57 58 59 61 62 59 59 58 53 49 49 47 42 40 35 43 46 46 45 38 48 51 50 49 51 52 51 51
59 59 59 59 59 59 59 60 60 60 61 61 53 49 44 58 53 55 55 57 59 59 59 64 57 48 47 38 30 35 25 33 39 47 45 41 37 47 49 50 48 48 50 49 49
58 58 58 58 58 59 59 59 59 57 56 60 54 45 49 45 51 54 55 59 56 53 53 50 45 39 38 32 23 28 29 35 34 42 43 39 39 45 49 49 46 45 45 47 48
58 57 58 58 58 59 53 49 45 43 47 43 43 44 46 51 55 53 59 57 55 49 39 44 36 29 36 39 39 38 34 34 38 45 40 38 39 42 47 46 43 41 43 45 46
57 57 58 58 58 58 50 43 44 47 37 45 47 47 49 50 47 53 60 50 49 39 42 36 30 40 44 44 42 40 36 32 40 45 42 39 40 45 46 45 46 44 42 43 44
56 57 57 58 57 50 45 45 50 51 36 39 44 43 44 49 44 47 54 51 45 40 38 33 38 45 43 38 39 36 36 35 34 41 42 39 36 40 45 45 47 45 44 43 43
57 57 57 57 49 45 43 50 51 49 29 32 38 43 47 48 42 54 56 51 47 39 40 37 42 42 38 37 39 32 42 42 39 32 25 37 23 35 40 42 44 42 40 40 41
57 57 57 56 45 43 48 50 49 45 17 35 39 49 48 43 43 49 56 51 44 43 40 32 36 37 37 38 42 37 44 40 39 32 28 30 22 33 38 39 41 40 40 39 39
57 57 57 50 46 48 50 49 45 25 19 33 41 40 42 45 46 48 50 53 51 42 41 38 44 42 41 45 44 45 39 38 35 30 19 28 26 29 34 39 39 39 39 41 40
57 58 54 54 45 51 50 44 27 21 35 34 36 41 40 38 43 44 42 39 36 27 24 37 38 43 46 39 43 40 29 16 18 21 18 32 27 32 41 40 40 40 39 39 41
56 55 53 53 51 51 45 34 23 33 33 40 40 41 36 41 43 42 39 34 40 36 27 21 22 38 44 40 36 34 31 19 14 17 19 32 24 33 39 39 40 41 40 41 41
55 46 46 48 52 49 39 28 26 33 40 38 40 37 36 42 42 40 37 37 39 40 30 27 26 43 44 51 44 34 27 37 25 25 22 23 32 40 38 39 38 38 39 39 40
45 44 44 50 48 43 33 31 35 44 45 44 34 41 34 38 38 38 37 41 41 44 42 37 27 41 43 46 46 40 43 29 28 18 19 22 26 30 34 38 39 37 38 39 40
44 42 47 49 46 40 27 31 41 47 47 42 38 38 38 37 38 37 35 41 44 43 42 40 36 38 43 37 36 38 33 35 33 28 20 21 26 38 39 40 39 39 40 39 40
43 37 47 47 37 34 29 39 46 45 46 44 43 42 38 38 36 34 35 40 46 45 38 39 35 27 34 41 44 39 36 35 25 26 28 25 28 41 41 40 40 39 40 39 41
42 41 46 45 32 29 39 43 44 44 44 44 43 45 44 39 35 38 38 45 47 43 38 39 33 22 29 35 38 37 38 38 35 30 26 22 27 41 38 38 39 38 38 39 40
42 35 42 41 39 37 37 39 40 45 45 46 44 46 42 40 41 37 37 44 45 44 49 45 34 30 25 31 34 32 35 37 35 23 26 28 30 36 38 38 39 38 38 38 39
40 36 39 32 39 38 39 41 39 39 44 45 42 42 39 35 37 36 38 39 43 46 41 40 30 29 33 35 35 35 36 36 32 37 30 31 32 42 42 41 42 42 39 38 38
40 39 38 38 40 37 39 38 40 41 41 40 40 41 41 36 37 36 38 36 37 37 37 38 30 30 26 34 33 31 35 37 38 38 36 38 37 49 50 40 40 40 39 40 41
40 42 42 40 38 36 37 39 41 42 43 44 42 39 38 41 41 39 40 40 37 37 36 35 30 26 24 30 31 28 35 36 35 36 40 34 42 40 42 42 43 43 40 43 44
MSLP
1012.50 1012.76 1012.95 1013.04 1013.26 1013.58 1013.85 1013.59 1013.70 1013.92 1013.98 1013.96 1014.07 1013.72 1014.33 1014.10 1014.24 1014.73 1014.61 1014.24 1014.06 1013.74 1013.91 1013.77 1013.70 1013.89 1014.18 1014.99 1015.30 1015.67 1016.92 1017.98 1017.95 1017.71 1017.65 1017.39 1017.39 1017.33 1017.32 1017.39 1017.22 1017.27 1017.72 1018.14 1018.09
1012.56 1012.71 1012.79 1013.23 1013.29 1013.75 1014.07 1014.01 1013.90 1013.87 1014.00 1014.03 1014.15 1014.19 1014.05 1013.91 1014.55 1014.85 1014.48 1013.98 1013.89 1013.91 1014.15 1014.16 1014.04 1014.03 1014.79 1015.43 1015.88 1016.29 1017.57 1018.18 1018.15 1017.89 1017.74 1017.76 1017.79 1017.81 1017.80 1017.94 1017.81 1017.80 1018.09 1018.27 1018.27
1012.78 1012.85 1013.01 1013.18 1013.40 1013.43 1014.00 1013.97 1013.95 1013.83 1014.09 1014.17 1014.15 1013.99 1013.67 1014.42 1014.89 1015.02 1014.41 1014.05 1014.04 1014.13 1014.36 1014.44 1014.21 1014.17 1015.16 1015.72 1016.52 1016.88 1017.65 1018.21 1018.52 1018.18 1018.04 1018.18 1018.23 1018.20 1018.12 1018.29 1018.31 1018.39 1018.23 1018.15 1018.30
1013.26 1013.26 1013.32 1013.36 1013.48 1013.60 1013.67 1013.89 1014.01 1013.98 1014.30 1014.39 1014.21 1014.09 1014.30 1014.57 1015.86 1015.35 1014.71 1014.11 1014.19 1014.26 1014.44 1014.28 1014.48 1014.85 1015.60 1016.37 1016.91 1017.33 1018.01 1018.10 1018.65 1018.66 1018.47 1018.71 1018.73 1018.64 1018.54 1018.26 1018.22 1018.17 1018.09 1018.09 1018.34
1013.85 1013.81 1013.88 1013.85 1013.82 1013.85 1013.92 1013.98 1014.11 1014.27 1014.46 1014.62 1014.40 1014.24 1014.81 1015.20 1015.81 1015.24 1015.07 1014.36 1014.32 1014.42 1014.51 1014.44 1014.76 1015.30 1015.92 1016.49 1017.01 1017.68 1018.28 1018.54 1018.75 1018.83 1018.85 1018.94 1019.15 1019.09 1018.63 1018.26 1018.28 1018.17 1018.16 1018.43 1018.91
1014.36 1014.37 1014.35 1014.30 1014.19 1014.03 1014.06 1014.19 1014.41 1014.65 1014.73 1014.78 1014.60 1014.74 1014.98 1015.76 1015.98 1015.39 1015.56 1014.69 1014.51 1014.53 1014.57 1014.57 1015.01 1015.25 1016.18 1016.91 1017.28 1017.88 1018.42 1018.95 1018.94 1018.98 1019.09 1019.33 1019.52 1019.36 1018.54 1018.03 1018.29 1018.31 1018.59 1018.98 1019.45
1015.06 1014.92 1014.83 1014.80 1014.69 1014.61 1014.62 1014.51 1014.81 1014.93 1014.92 1014.95 1014.86 1015.01 1015.39 1016.39 1016.13 1015.86 1015.22 1015.22 1014.68 1014.69 1014.93 1014.91 1014.91 1015.40 1016.54 1017.53 1017.97 1018.30 1018.99 1019.35 1019.32 1019.28 1019.56 1019.52 1019.62 1019.41 1018.69 1018.50 1018.58 1018.78 1019.05 1019.60 1019.94
1015.39 1015.42 1015.33 1015.25 1015.22 1015.15 1015.05 1014.71 1015.12 1015.23 1015.16 1015.10 1015.02 1015.31 1016.11 1016.76 1016.40 1016.31 1015.60 1015.57 1015.07 1014.86 1015.02 1015.10 1015.00 1015.99 1017.20 1018.12 1018.55 1019.14 1019.47 1019.86 1019.70 1019.59 1019.87 1019.87 1019.53 1018.88 1018.77 1018.97 1019.15 1019.40 1019.50 1020.01 1020.35
1016.01 1015.93 1015.86 1015.82 1015.72 1015.55 1015.51 1015.35 1015.59 1015.46 1015.35 1015.13 1015.54 1015.68 1016.87 1016.77 1016.78 1017.10 1017.00 1016.37 1015.82 1015.47 1015.35 1015.27 1015.54 1017.39 1018.16 1019.06 1019.98 1020.43 1020.33 1020.20 1019.91 1019.79 1020.02 1020.23 1019.80 1019.14 1019.10 1019.15 1019.32 1019.65 1019.94 1020.22 1020.54
1016.57 1016.45 1016.22 1016.06 1015.83 1015.75 1015.87 1015.87 1015.84 1015.88 1015.91 1015.59 1015.90 1016.63 1017.54 1017.65 1017.51 1017.59 1017.14 1016.74 1016.52 1016.30 1016.33 1016.68 1017.54 1018.39 1019.38 1019.75 1020.79 1020.81 1020.64 1020.37 1020.14 1020.19 1020.18 1020.25 1019.84 1019.41 1019.16 1019.31 1019.24 1019.59 1020.09 1020.41 1020.68
1016.88 1016.77 1016.63 1016.24 1016.21 1016.17 1016.20 1016.36 1016.88 1017.45 1017.68 1017.70 1017.72 1017.71 1018.10 1018.16 1017.85 1017.84 1017.66 1017.17 1016.86 1017.08 1017.86 1018.25 1019.02 1019.51 1019.98 1019.89 1020.00 1020.19 1020.34 1020.51 1020.30 1020.22 1020.35 1020.24 1019.88 1019.52 1018.98 1019.05 1019.22 1019.84 1020.30 1020.62 1020.79
1017.12 1016.99 1016.77 1016.59 1016.48 1016.50 1016.72 1017.39 1017.99 1018.18 1018.77 1018.80 1018.52 1018.64 1018.96 1019.05 1018.01 1017.49 1016.86 1017.22 1017.37 1018.14 1018.50 1019.28 1020.05 1020.09 1020.02 1019.98 1020.06 1020.15 1020.46 1020.65 1020.60 1020.51 1020.70 1020.50 1019.64 1019.04 1018.67 1018.45 1018.78 1019.71 1020.48 1020.68 1020.83
1017.26 1017.16 1017.13 1016.98 1016.87 1017.15 1017.56 1018.09 1018.13 1018.02 1019.10 1019.88 1019.89 1019.90 1019.87 1019.58 1019.05 1017.94 1017.31 1017.37 1018.43 1018.84 1019.17 1019.76 1020.41 1020.13 1020.15 1020.23 1020.28 1020.66 1020.74 1020.92 1021.08 1021.00 1021.04 1020.96 1019.99 1019.05 1018.68 1018.62 1019.00 1019.78 1020.41 1020.77 1020.97
1017.53 1017.41 1017.25 1017.19 1017.45 1018.08 1018.12 1018.17 1018.21 1018.30 1019.54 1021.22 1020.66 1020.59 1020.19 1019.66 1019.24 1018.33 1017.87 1017.83 1018.37 1019.53 1019.90 1020.59 1020.56 1020.39 1020.32 1020.41 1020.45 1020.90 1020.89 1021.11 1021.57 1021.89 1022.26 1021.94 1021.29 1019.63 1019.17 1019.18 1019.48 1020.11 1020.59 1020.96 1021.17
1017.74 1017.73 1017.61 1017.43 1018.11 1018.38 1018.33 1018.23 1018.42 1018.59 1020.03 1021.90 1021.10 1020.75 1020.00 1019.87 1020.09 1018.24 1017.72 1017.78 1018.73 1019.47 1020.13 1021.35 1020.85 1020.58 1020.47 1020.53 1020.48 1021.01 1021.09 1021.41 1021.93 1022.69 1023.18 1022.97 1022.66 1019.68 1019.39 1019.41 1019.44 1020.08 1020.67 1021.01 1021.19
1017.84 1017.80 1017.80 1018.02 1018.41 1018.51 1018.37 1018.49 1018.71 1019.31 1021.12 1021.45 1021.03 1020.61 1019.86 1019.51 1019.25 1018.95 1018.30 1018.26 1018.85 1019.98 1020.57 1021.09 1020.84 1020.62 1020.44 1020.48 1020.54 1020.89 1021.52 1022.11 1022.77 1023.53 1023.82 1023.31 1022.93 1020.24 1019.48 1018.82 1019.16 1019.87 1020.50 1020.91 1021.09
1017.88 1017.72 1017.69 1017.84 1018.36 1018.19 1018.36 1018.73 1019.12 1019.94 1021.95 1021.55 1020.98 1020.29 1019.83 1019.78 1019.08 1018.88 1018.76 1018.85 1019.34 1020.51 1021.79 1021.48 1021.29 1020.80 1020.47 1020.70 1020.86 1021.16 1022.30 1023.37 1024.13 1024.41 1024.45 1023.46 1022.94 1019.84 1018.64 1018.65 1018.95 1019.67 1020.40 1020.72 1020.91
1017.99 1017.93 1018.07 1017.99 1018.13 1018.12 1018.56 1019.02 1019.48 1021.07 1020.77 1020.94 1020.55 1020.18 1019.74 1019.56 1019.20 1019.14 1019.17 1019.38 1019.54 1020.21 1021.59 1021.95 1021.91 1020.98 1020.57 1020.54 1020.96 1021.43 1022.38 1023.55 1024.63 1025.41 1024.63 1023.57 1022.23 1019.25 1018.45 1018.65 1019.15 1019.65 1020.12 1020.58 1020.71
1018.10 1018.52 1018.59 1018.40 1018.30 1018.36 1018.86 1019.31 1020.37 1020.28 1020.09 1020.01 1020.08 1019.61 1019.37 1019.04 1019.00 1019.12 1019.21 1019.32 1019.44 1019.71 1020.64 1021.41 1021.50 1020.77 1020.48 1019.98 1020.50 1021.38 1022.14 1022.88 1024.10 1025.05 1025.13 1023.20 1021.19 1018.84 1018.76 1018.83 1019.19 1019.66 1020.12 1020.31 1020.39
1018.63 1018.82 1018.95 1018.53 1018.59 1018.92 1019.05 1019.55 1019.72 1019.33 1019.04 1019.24 1019.11 1018.70 1018.90 1018.88 1018.91 1018.94 1019.05 1019.03 1019.15 1019.22 1019.54 1020.38 1021.08 1020.91 1020.52 1020.32 1020.39 1020.76 1021.72 1022.89 1024.20 1025.11 1024.74 1022.87 1021.20 1019.05 1018.49 1018.22 1018.63 1019.22 1019.57 1019.74 1019.82
1018.89 1019.07 1018.83 1018.77 1018.89 1019.07 1020.17 1019.95 1019.32 1018.70 1018.47 1018.47 1018.25 1018.25 1018.48 1018.59 1018.74 1018.83 1019.03 1018.93 1018.83 1019.00 1019.21 1019.67 1020.23 1021.19 1020.86 1020.61 1020.42 1021.00 1021.49 1022.21 1023.04 1023.78 1023.85 1023.03 1019.98 1017.40 1017.36 1017.60 1018.10 1018.50 1018.82 1019.09 1019.31
1019.02 1019.58 1019.09 1019.01 1019.21 1020.06 1020.24 1019.62 1018.92 1018.48 1018.09 1017.93 1017.82 1017.84 1018.05 1018.16 1018.50 1018.68 1018.86 1018.75 1018.60 1018.81 1019.26 1019.64 1020.28 1021.03 1020.70 1020.12 1020.01 1020.40 1020.93 1021.64 1022.71 1023.18 1023.08 1022.52 1019.12 1016.65 1016.80 1017.08 1017.59 1017.99 1018.30 1018.60 1018.81
1019.11 1019.36 1019.22 1019.39 1019.92 1020.44 1019.64 1019.12 1018.69 1018.33 1018.06 1017.80 1017.85 1017.90 1017.83 1018.04 1018.41 1018.63 1018.88 1018.90 1018.92 1019.19 1019.62 1019.92 1020.58 1021.23 1021.19 1020.82 1020.33 1020.47 1020.60 1021.04 1021.89 1022.38 1022.38 1022.04 1018.47 1016.75 1016.82 1017.01 1017.27 1017.72 1017.93 1018.16 1018.44
1018.98 1019.57 1019.40 1019.38 1019.83 1019.65 1019.40 1019.03 1018.54 1018.14 1017.95 1017.76 1017.75 1017.69 1017.92 1018.07 1018.23 1018.74 1019.09 1019.22 1019.32 1019.65 1020.00 1020.31 1021.16 1021.60 1021.42 1020.72 1020.40 1020.47 1020.23 1020.46 1021.12 1021.88 1021.23 1019.44 1017.60 1016.52 1016.43 1016.59 1016.71 1017.00 1017.19 1017.44 1017.80
1019.11 1020.21 1019.97 1020.00 1019.83 1019.38 1019.12 1018.85 1018.58 1018.31 1018.06 1017.95 1018.09 1018.20 1018.35 1018.48 1018.64 1018.98 1019.28 1019.58 1019.77 1020.01 1020.44 1021.03 1021.73 1021.68 1021.14 1020.61 1020.27 1019.72 1019.50 1019.61 1019.83 1019.40 1019.72 1017.05 1016.62 1014.53 1014.90 1015.02 1015.18 1015.59 1016.29 1017.01 1017.17
1019.74 1020.03 1020.03 1019.86 1019.63 1019.26 1019.12 1018.79 1018.60 1018.50 1018.36 1018.31 1018.34 1018.43 1018.50 1018.73 1018.95 1019.21 1019.50 1019.97 1020.13 1020.61 1020.89 1021.35 1021.81 1021.95 1021.29 1020.20 1019.99 1019.36 1018.40 1018.30 1018.05 1017.86 1017.33 1016.41 1015.03 1013.79 1013.27 1013.89 1014.47 1014.89 1015.43 1015.89 1016.00
1020.00 1019.93 1020.00 1020.04 1019.79 1019.59 1019.02 1018.75 1018.55 1018.44 1018.37 1018.26 1018.42 1018.61 1018.70 1018.81 1019.02 1019.33 1019.69 1020.11 1020.33 1020.75 1021.30 1021.77 1022.24 1022.79 1021.71 1020.57 1019.58 1017.90 1015.35 1015.55 1015.97 1015.84 1015.57 1015.79 1012.07 1012.76 1012.78 1013.17 1013.40 1013.76 1014.27 1014.39 1014.41
Wind_Speed
8 5 5 9 9 3 6 5 10 7 4 5 2 6 6 7 7 1 1 3 3 4 3 4 1 3 4 3 3 3 6 3 2 4 5 1 3 3 1 2 3 4 5 3 2
4 2 5 9 14 9 3 7 8 7 4 5 4 2 6 10 5 1 3 2 2 1 5 1 4 5 5 3 3 6 5 3 2 1 4 3 4 2 3 4 3 3 3 3 3
10 9 6 5 9 9 13 11 10 8 3 3 3 1 8 5 7 0 8 3 2 4 1 3 1 4 4 4 3 2 5 5 2 3 3 2 3 4 3 1 2 1 5 4 3
11 10 10 9 8 9 11 6 10 8 5 4 5 5 9 1 9 4 13 3 1 2 3 1 2 4 5 6 0 7 5 5 4 2 2 2 1 2 2 4 3 4 2 3 7
11 11 11 11 10 8 5 2 7 8 5 3 5 7 3 4 3 8 17 7 2 4 2 3 3 4 7 7 5 5 4 5 5 4 2 2 1 3 5 8 6 6 2 5 6
13 13 12 12 12 11 9 9 8 6 5 4 4 1 1 5 6 9 7 7 3 3 4 5 1 1 6 5 5 4 7 6 3 3 2 2 1 4 5 3 5 1 3 6 8
12 11 11 11 13 13 13 16 12 8 7 5 5 2 6 6 6 5 10 8 4 1 3 3 1 6 3 5 3 6 6 3 1 1 1 3 3 6 5 3 4 3 7 8 7
11 11 12 12 12 12 13 15 11 9 7 6 6 2 5 2 5 7 12 6 7 5 4 4 6 9 5 3 6 5 6 3 1 2 1 2 4 4 6 5 4 4 7 7 6
12 11 12 11 13 13 12 13 9 10 5 4 6 3 4 8 5 4 3 5 4 5 6 2 7 5 5 5 6 7 3 2 2 3 1 1 4 4 2 3 6 6 6 7 6
10 8 8 8 11 12 13 14 18 9 9 2 2 6 4 3 4 3 5 9 4 4 7 9 6 5 4 6 5 5 4 2 1 0 1 3 9 8 9 7 8 7 6 6 6
11 7 8 13 18 12 5 3 5 7 11 10 5 8 7 7 4 2 7 7 1 6 4 4 8 3 4 3 5 6 5 4 2 0 2 5 9 10 10 8 4 7 7 5 6
7 8 9 12 6 5 4 5 2 5 8 14 14 12 6 4 4 4 3 3 4 4 3 7 5 2 4 5 5 5 6 2 1 1 2 4 15 10 9 6 8 9 6 5 3
4 6 4 6 7 7 5 4 1 3 6 7 6 5 5 6 2 6 6 2 6 5 4 6 4 3 4 4 7 5 6 2 3 4 1 6 7 2 2 3 6 4 5 4 3
6 6 3 6 8 1 4 1 2 1 6 10 8 6 3 2 7 6 3 3 5 5 5 6 3 4 5 4 3 4 1 4 3 4 2 4 6 5 2 5 5 5 4 3 1
4 2 6 3 6 2 3 2 2 2 7 7 5 5 6 3 6 7 2 3 4 2 5 5 3 3 5 1 2 4 1 2 1 2 3 1 4 8 2 5 8 7 5 3 1
3 2 5 4 3 0 2 3 2 8 7 3 3 3 3 5 2 2 4 3 3 8 7 3 1 2 2 3 3 2 3 4 3 2 4 3 4 7 4 6 3 4 4 4 3
2 3 4 2 2 3 1 3 6 8 2 4 4 2 5 3 3 3 3 3 3 6 4 3 3 2 2 4 4 3 6 4 6 6 5 2 2 11 6 4 5 7 7 6 5
1 5 5 1 3 1 3 4 10 5 4 2 3 3 4 7 3 1 2 2 2 5 4 5 6 2 3 3 5 2 5 6 5 0 5 3 6 8 2 2 3 4 4 5 5
5 3 3 2 1 3 4 7 6 5 5 6 3 0 2 1 3 1 2 2 1 4 6 5 3 2 3 3 3 3 1 2 5 2 2 4 8 7 2 6 5 7 7 8 7
2 2 2 1 3 4 6 6 4 3 3 3 1 2 3 4 3 2 2 1 3 2 4 7 5 4 1 3 1 2 5 4 2 2 4 5 6 7 5 7 7 8 8 6 5
3 3 2 2 3 5 4 3 4 1 1 4 1 4 3 3 3 2 1 1 4 1 2 3 5 2 3 5 8 3 1 3 2 5 4 4 8 7 7 5 7 7 7 7 7
2 4 2 1 5 2 2 2 2 3 1 2 0 3 2 2 2 2 3 4 3 3 1 2 4 4 8 4 6 5 7 5 5 4 3 3 10 3 6 5 6 7 7 6 7
2 2 1 2 4 4 2 3 2 4 4 4 4 4 3 2 3 2 2 2 3 3 2 1 2 3 8 7 2 4 5 4 3 2 6 5 9 1 4 4 7 8 8 8 8
4 3 4 4 1 4 2 2 2 0 3 3 3 4 4 4 3 3 2 1 2 3 5 3 0 4 7 4 4 5 6 7 7 4 4 11 8 7 8 9 8 10 9 9 9
3 2 2 1 2 3 2 1 2 3 3 2 3 3 2 1 2 2 2 2 2 2 2 3 3 3 7 10 6 8 9 9 13 16 11 5 13 15 11 13 14 11 8 8 11
2 4 3 1 2 2 2 3 3 1 0 1 3 3 3 2 3 5 3 3 5 1 4 2 3 2 6 4 5 8 14 17 18 17 19 17 26 17 17 6 7 10 9 13 15
2 2 3 2 1 3 3 4 4 4 3 3 3 1 2 2 3 2 2 1 1 5 5 3 1 2 7 4 8 10 17 20 8 7 20 17 27 2 6 5 9 10 10 15 16
Wind_Direction
242 257 163 122 117 176 318 223 183 178 161 145 112 119 154 159 109 45 235 231 217 194 312 304 122 98 87 64 36 81 65 74 92 140 160 13 109 8 108 55 11 33 72 125 81
145 176 152 153 136 132 295 287 191 173 160 119 112 192 205 136 73 226 305 289 166 138 2 205 137 114 69 63 6 76 83 129 286 129 129 108 99 349 80 15 11 37 44 8 39
80 77 95 140 158 161 207 219 183 163 172 83 42 323 147 175 72 283 332 283 195 82 0 316 262 86 81 69 352 92 125 150 35 80 52 104 80 338 116 137 109 343 308 338 16
64 70 75 83 104 163 186 180 173 156 143 52 346 237 195 236 168 293 331 271 68 41 334 103 135 79 103 112 3 98 62 120 162 41 56 68 337 353 223 209 117 247 198 348 359
73 75 73 72 74 83 92 156 164 162 126 57 11 113 126 109 123 343 317 325 348 329 49 86 88 114 132 133 101 83 121 85 117 96 99 63 341 254 256 267 299 214 343 346 356
72 72 73 73 70 72 86 93 118 135 102 39 1 359 332 100 325 351 327 331 324 0 35 53 93 88 102 92 85 125 98 126 110 97 47 49 306 2 291 161 176 203 4 80 67
67 74 73 78 77 72 83 86 77 87 69 39 23 11 58 50 340 306 20 318 347 270 81 2 187 83 87 87 115 114 93 55 32 63 87 93 302 239 243 170 190 118 126 91 95
61 73 75 77 71 77 70 77 73 56 52 54 40 40 72 5 282 67 348 318 25 48 91 15 84 91 67 134 41 75 58 104 302 117 29 64 249 274 209 171 236 183 137 118 106
48 63 78 81 81 78 75 82 77 44 42 28 33 62 52 318 47 13 322 345 11 24 25 30 63 83 42 80 36 15 153 140 335 200 103 128 259 278 159 286 289 201 176 143 122
54 56 73 77 117 109 104 92 69 39 352 38 47 71 353 58 29 20 329 298 29 19 24 37 46 77 44 69 189 170 112 88 146 183 200 267 256 274 274 284 271 194 168 155 120
46 70 78 60 122 123 52 30 26 35 31 43 38 70 56 329 254 82 172 274 16 46 95 18 72 106 133 123 144 121 108 117 82 78 288 249 267 266 259 258 176 162 176 169 120
52 81 94 74 100 75 64 74 61 144 60 20 40 61 51 311 69 25 8 121 35 75 75 34 84 129 105 90 94 91 108 56 61 148 264 305 283 268 253 241 183 173 175 159 116
130 114 79 91 66 43 75 96 33 120 80 19 22 28 340 6 29 340 10 67 104 39 65 107 159 92 104 65 96 40 117 129 179 323 1 312 292 294 16 63 103 90 134 128 128
129 130 72 354 46 324 36 127 53 36 80 359 16 23 1 340 20 296 343 82 85 138 89 79 337 106 82 78 101 95 70 117 76 64 239 38 274 293 225 203 162 161 155 158 119
119 43 356 59 141 72 208 240 330 68 72 336 360 299 285 84 156 341 338 30 77 89 90 255 116 88 79 89 80 168 129 106 114 116 58 355 71 269 159 229 219 192 191 187 64
89 81 94 29 45 192 196 295 60 43 46 39 6 40 67 13 40 230 354 62 143 62 47 115 187 50 85 67 80 156 89 46 62 84 36 259 124 282 210 217 190 163 192 207 218
145 95 124 113 163 194 280 34 39 59 284 35 50 344 90 40 16 39 56 40 117 86 15 357 11 7 85 81 3 72 55 353 360 17 216 306 84 246 258 218 209 188 209 215 212
112 19 359 76 136 94 57 59 65 12 57 122 118 32 96 180 328 91 90 53 90 84 98 114 340 219 193 197 168 78 131 147 187 208 274 6 242 257 271 165 183 193 208 229 193
122 11 12 311 47 51 70 52 133 193 172 167 165 155 198 284 138 119 196 145 133 157 130 128 311 304 233 178 144 268 67 178 90 8 38 243 288 295 208 249 226 227 215 219 214
94 72 309 193 81 58 65 100 85 150 134 156 282 197 130 180 153 157 153 218 175 180 161 198 96 217 216 34 336 111 157 84 53 136 264 282 267 242 262 255 224 229 228 233 212
42 49 270 136 75 52 83 70 63 345 102 182 261 101 127 183 187 174 154 280 193 173 43 155 104 146 113 204 179 149 275 192 140 154 182 294 262 216 206 211 229 238 230 215 213
120 38 338 44 53 58 59 3 332 358 15 304 116 64 86 6 101 84 151 222 166 138 116 49 119 172 210 258 194 180 188 162 132 237 226 162 272 275 210 209 204 234 226 214 209
103 180 302 10 81 351 323 51 59 16 358 29 37 24 14 48 74 89 85 4 68 64 91 338 15 46 351 352 355 212 203 181 123 87 219 151 260 250 275 254 242 233 228 217 209
87 49 340 53 100 123 98 34 82 354 333 15 30 47 14 24 43 113 96 24 72 80 82 57 346 187 191 207 153 207 215 195 160 158 208 231 283 262 247 243 239 233 228 217 215
38 232 202 209 339 103 95 23 78 19 1 17 37 53 29 61 47 93 114 55 25 125 86 117 241 235 246 241 238 231 226 205 204 218 204 204 223 249 232 228 231 226 220 213 224
112 122 12 171 320 87 353 174 162 175 144 346 117 334 11 197 208 199 163 183 206 215 175 174 264 352 282 268 219 254 239 228 227 228 243 254 273 273 258 229 251 233 208 217 221
328 358 89 290 89 92 217 187 205 163 219 195 170 57 309 207 178 197 192 138 110 166 197 162 164 38 267 334 302 280 231 206 201 213 223 234 243 282 275 253 238 243 207 222 221